Orbital Elements at Epoch 2459200.5 (2020-Dec-17.0) TDB
Reference: JPL 17 (heliocentric ecliptic J2000)
Element | Value | Uncertainty (1-sigma) | Units |
e | .2383889563586928 | 4.7659e-08 | |
a | 2.23106717062254 | 6.7755e-09 | au |
q | 1.699205396251691 | 1.0598e-07 | au |
i | 9.018697636385367 | 5.1402e-06 | deg |
node | 178.139849001518 | 2.1845e-05 | deg |
peri | 162.7920875044678 | 2.3479e-05 | deg |
M | 146.4666939163075 | 7.741e-06 | deg |
tp | 2458705.273617108138 (2019-Aug-09.77361711) | 2.6141e-05 | TDB |
period | 1217.215279966257 3.33 | 5.5448e-06 1.518e-08 | d yr |
n | .2957570496568033 | 1.3473e-09 | deg/d |
Q | 2.762928944993388 | 8.3907e-09 | au |
|
| | Orbit Determination Parameters
Additional Information
|